Content
SEND FEEDBACK

Daily
Averages
Monthly
Summary
United States of America

INARAJAN, GUAM


Home > North America > United States > Guam
Elevation: 280 feet     Latitude: 13 18N     Longitude: 144 44E

WEATHER
 
SELECT A DAY
Number of Records: 354,252;   Date Range: 1/1/95 - 11/21/14
 
SHARE

PRINT THIS DATA

[ ← Previous Day ]
WEATHER ALMANAC - JANUARY 3, 2014
[ Next Day → ]
[ °C ]   °F
Weather ElementAverageHighLow
Temperature79.8 °F84.2 °F (11:38 am)77.5 °F (11:58 pm)
Dewpoint74.1 °F76.3 °F (9:58 am)70.2 °F (4:58 pm)
Humidity83.1 %92 % (1:58 am)70 % (3:58 pm)
Barometer29.88 in29.95 in (9:03 am)29.81 in (2:58 pm)
Wind Speed16.2 mph20.7 mph (9:58 am)
Wind Gust28.8 mph (2:43 pm)
Weather ElementAverage
Visibility10 mi
Wind DirectionENE (65.9 °)

Weather ElementTotal
Precipitation---
Cooling Degree Days15.9 (Base 65)
Growing Degree Days30.9 (Base 50)
Averaged from 44 records on January 3, 2014
WEATHER CONDITIONS BREAKOUT
WIND DIRECTION BREAKOUT
WEATHER BY HOUR - JANUARY 3, 2014
[ °C ]   °F
Local TimeTemperatureDewpointHumidityBarometerVisibilityWind DirectionWind SpeedGust SpeedPrecipitationEventsConditions
12:13 AM78.8 °F73.4 °F83 %29.93 in10.0 miNE (50°)16.1 mphMostly Cloudy
12:18 AM78.8 °F73.4 °F83 %29.93 in10.0 miENE (60°)17.3 mphScattered Clouds
12:58 AM78.3 °F75.0 °F90 %29.92 in10.0 miNE (50°)12.7 mph20.7 mphScattered Clouds
1:08 AM78.8 °F75.2 °F89 %29.92 in10.0 miENE (60°)17.3 mph21.9 mphMostly Cloudy
1:18 AM78.8 °F75.2 °F89 %29.92 in10.0 miENE (60°)15.0 mph20.7 mphScattered Clouds
1:58 AM78.3 °F75.7 °F92 %29.91 in10.0 miENE (60°)16.1 mph20.7 mphScattered Clouds
2:08 AM78.8 °F75.2 °F89 %29.91 in10.0 miENE (60°)16.1 mphMostly Cloudy
2:13 AM78.8 °F75.2 °F89 %29.90 in10.0 miENE (60°)17.3 mph21.9 mphMostly Cloudy
2:23 AM78.8 °F75.2 °F89 %29.90 in10.0 miENE (60°)19.6 mph21.9 mphScattered Clouds
2:58 AM77.9 °F74.8 °F90 %29.89 in10.0 miENE (60°)16.1 mph21.9 mphPartly Cloudy
3:58 AM77.9 °F75.0 °F91 %29.86 in10.0 miENE (60°)13.8 mph20.7 mphScattered Clouds
4:08 AM78.8 °F75.2 °F89 %29.89 in10.0 miENE (60°)12.7 mphMostly Cloudy
4:13 AM78.8 °F75.2 °F89 %29.89 in10.0 miENE (60°)11.5 mphScattered Clouds
4:18 AM78.8 °F75.2 °F89 %29.89 in10.0 miENE (60°)16.1 mphMostly Cloudy
4:28 AM78.8 °F75.2 °F89 %29.89 in10.0 miENE (60°)11.5 mphMostly Cloudy
4:58 AM78.3 °F75.0 °F90 %29.87 in10.0 miENE (60°)16.1 mphMostly Cloudy
5:18 AM78.8 °F73.4 °F83 %29.90 in10.0 miENE (60°)17.3 mphScattered Clouds
5:58 AM77.9 °F75.2 °F91 %29.87 in10.0 miENE (60°)15.0 mphScattered Clouds
6:53 AM78.8 °F75.2 °F89 %29.91 in10.0 miENE (60°)16.1 mphMostly Cloudy
6:58 AM78.4 °F75.4 °F90 %29.88 in10.0 miENE (60°)16.1 mphScattered Clouds
7:03 AM78.8 °F75.2 °F89 %29.91 in10.0 miENE (60°)15.0 mphMostly Cloudy
7:08 AM78.8 °F75.2 °F89 %29.91 in10.0 miENE (60°)13.8 mphScattered Clouds
7:58 AM79.9 °F75.6 °F87 %29.91 in10.0 miNE (50°)18.4 mphScattered Clouds
8:58 AM80.2 °F75.6 °F86 %29.92 in10.0 miENE (60°)18.4 mph25.3 mphMostly Cloudy
9:03 AM80.6 °F75.2 °F84 %29.95 in10.0 miENE (60°)17.3 mph25.3 mphScattered Clouds
9:58 AM81.5 °F76.3 °F84 %29.91 in10.0 miEast (80°)20.7 mphPartly Cloudy
10:58 AM83.3 °F73.6 °F72 %29.89 in10.0 miENE (70°)19.6 mphClear
11:38 AM84.2 °F75.2 °F74 %29.91 in10.0 miENE (70°)19.6 mph26.5 mphMostly Cloudy
11:53 AM82.4 °F75.2 °F79 %29.90 in10.0 miENE (70°)20.7 mph26.5 mphScattered Clouds
11:58 AM83.1 °F75.0 °F76 %29.86 in10.0 miEast (80°)18.4 mph27.6 mphScattered Clouds
12:58 PM84.0 °F75.7 °F76 %29.84 in10.0 miENE (70°)19.6 mph25.3 mphPartly Cloudy
1:58 PM83.5 °F73.0 °F71 %29.82 in10.0 miEast (80°)20.7 mph27.6 mphPartly Cloudy
2:43 PM82.4 °F73.4 °F74 %29.84 in10.0 miENE (70°)20.7 mph28.8 mphMostly Cloudy
2:53 PM82.4 °F73.4 °F74 %29.84 in10.0 miEast (80°)18.4 mphScattered Clouds
2:58 PM82.8 °F73.2 °F73 %29.81 in10.0 miEast (80°)18.4 mphScattered Clouds
3:58 PM82.0 °F71.4 °F70 %29.82 in10.0 miENE (70°)19.6 mphClear
4:58 PM81.0 °F70.2 °F70 %29.82 in10.0 miEast (80°)17.3 mphClear
5:58 PM79.2 °F70.7 °F75 %29.83 in10.0 miEast (80°)13.8 mphClear
6:58 PM78.1 °F72.5 °F83 %29.86 in10.0 miEast (80°)9.2 mphClear
7:58 PM78.4 °F72.7 °F82 %29.87 in10.0 miEast (80°)13.8 mph20.7 mphPartly Cloudy
8:58 PM78.4 °F71.1 °F78 %29.87 in10.0 miENE (70°)15.0 mph23.0 mphScattered Clouds
9:58 PM77.7 °F71.4 °F81 %29.88 in10.0 miENE (70°)12.7 mphScattered Clouds
10:58 PM78.1 °F70.3 °F77 %29.87 in10.0 miEast (80°)12.7 mphPartly Cloudy
11:58 PM77.5 °F70.9 °F80 %29.88 in10.0 miENE (70°)8.1 mphPartly Cloudy
Hourly data recorded from PGUA, located miles away from Inarajan, Guam







STORIES FROM OUR PARTNERS